START_TIME,STEP,MOV.,M35,t_acc.,PL05,t_acc.,PL06,t_acc.,PL07,t_acc.
1981-08-24 03:00:24.990 ,7,0,0.,4.8,1.,4.8,0.,4.8,0.,4.8
1981-08-24 03:00:29.790 ,7,0,0.,4.8,1.,4.8,0.,4.8,0.,4.8
1981-08-24 03:00:34.590 ,7,0,0.,4.8,1.,4.8,0.,4.8,1.,4.8
1981-08-24 03:00:39.390 ,7,0,0.,4.8,1.,4.8,0.,4.8,0.,4.8
1981-08-24 03:00:44.190 ,7,0,0.,4.8,0.,4.8,1.,4.8,0.,4.8
1981-08-24 03:00:48.990 ,7,0,0.,4.8,0.,4.8,0.,4.8,0.,4.8
1981-08-24 03:00:53.790 ,7,0,0.,4.8,0.,4.8,0.,4.8,0.,4.8
1981-08-24 03:00:58.590 ,7,0,0.,4.8,1.,4.8,0.,4.8,0.,4.8
1981-08-24 03:01:03.390 ,7,0,0.,4.8,0.,4.8,0.,4.8,0.,4.8
1981-08-24 03:01:08.190 ,7,0,0.,4.8,2.,4.8,0.,4.8,0.,4.8
1981-08-24 03:01:12.990 ,7,0,0.,4.8,0.,4.8,0.,4.8,0.,4.8
1981-08-24 03:01:17.790 ,7,0,0.,4.8,0.,4.8,0.,4.8,1.,4.8
1981-08-24 03:01:22.590 ,7,0,0.,4.8,0.,4.8,0.,4.8,0.,4.8
1981-08-24 03:01:27.390 ,7,0,0.,4.8,0.,4.8,1.,4.8,0.,4.8
1981-08-24 03:01:32.190 ,7,0,0.,4.8,1.,4.8,0.,4.8,0.,4.8
1981-08-24 03:01:36.990 ,6,0,0.,4.8,0.,4.8,0.,4.8,0.,4.8
1981-08-24 03:01:41.790 ,6,0,0.,4.8,0.,4.8,0.,4.8,0.,4.8
1981-08-24 03:01:46.590 ,6,0,0.,4.8,1.,4.8,0.,4.8,0.,4.8
1981-08-24 03:01:51.390 ,6,0,0.,4.8,2.,4.8,1.,4.8,0.,4.8
1981-08-24 03:01:56.190 ,6,0,0.,4.8,0.,4.8,0.,4.8,0.,4.8
1981-08-24 03:02:00.990 ,6,0,0.,4.8,2.,4.8,1.,4.8,0.,4.8
1981-08-24 03:02:05.790 ,6,0,0.,4.8,1.,4.8,0.,4.8,0.,4.8
1981-08-24 03:02:10.590 ,6,0,0.,4.8,1.,4.8,0.,4.8,0.,4.8
1981-08-24 03:02:15.390 ,6,0,0.,4.8,1.,4.8,0.,4.8,0.,4.8
1981-08-24 03:02:20.190 ,6,0,0.,4.8,4.,4.8,0.,4.8,0.,4.8
1981-08-24 03:02:24.990 ,5,0,0.,4.8,2.,4.8,0.,4.8,1.,4.8
1981-08-24 03:02:29.790 ,5,0,0.,4.8,0.,4.8,2.,4.8,0.,4.8
1981-08-24 03:02:34.590 ,5,0,0.,4.8,3.,4.8,0.,4.8,0.,4.8
1981-08-24 03:02:39.390 ,5,0,0.,4.8,1.,4.8,0.,4.8,0.,4.8
1981-08-24 03:02:44.190 ,5,0,0.,4.8,3.,4.8,0.,4.8,0.,4.8
1981-08-24 03:02:48.990 ,5,0,0.,4.8,1.,4.8,0.,4.8,0.,4.8
1981-08-24 03:02:53.790 ,5,0,0.,4.8,0.,4.8,0.,4.8,0.,4.8
1981-08-24 03:02:58.590 ,5,0,0.,4.8,1.,4.8,1.,4.8,0.,4.8
1981-08-24 03:03:03.390 ,5,0,0.,4.8,1.,4.8,0.,4.8,1.,4.8
1981-08-24 03:03:08.190 ,5,0,0.,4.8,1.,4.8,0.,4.8,0.,4.8
1981-08-24 03:03:12.990 ,4,0,0.,4.8,0.,4.8,1.,4.8,0.,4.8
1981-08-24 03:03:17.790 ,4,0,0.,4.8,0.,4.8,0.,4.8,1.,4.8
1981-08-24 03:03:22.590 ,4,0,0.,4.8,1.,4.8,0.,4.8,0.,4.8
1981-08-24 03:03:27.390 ,4,0,0.,4.8,0.,4.8,0.,4.8,0.,4.8
1981-08-24 03:03:32.190 ,4,0,0.,4.8,2.,4.8,0.,4.8,0.,4.8
1981-08-24 03:03:36.990 ,4,0,0.,4.8,4.,4.8,0.,4.8,0.,4.8
1981-08-24 03:03:41.790 ,4,0,0.,4.8,2.,4.8,1.,4.8,0.,4.8
1981-08-24 03:03:46.590 ,4,0,0.,4.8,2.,4.8,0.,4.8,0.,4.8
1981-08-24 03:03:51.390 ,4,0,0.,4.8,1.,4.8,0.,4.8,0.,4.8
1981-08-24 03:03:56.190 ,4,0,0.,4.8,1.,4.8,0.,4.8,0.,4.8
1981-08-24 03:04:00.990 ,3,0,0.,4.8,0.,4.8,0.,4.8,0.,4.8
1981-08-24 03:04:05.790 ,3,0,0.,4.8,0.,4.8,0.,4.8,0.,4.8
1981-08-24 03:04:10.590 ,3,0,0.,4.8,0.,4.8,0.,4.8,0.,4.8
1981-08-24 03:04:15.390 ,3,0,0.,4.8,2.,4.8,0.,4.8,0.,4.8
1981-08-24 03:04:20.190 ,3,0,0.,4.8,2.,4.8,0.,4.8,0.,4.8
1981-08-24 03:04:24.990 ,3,0,0.,4.8,1.,4.8,0.,4.8,0.,4.8
1981-08-24 03:04:29.790 ,3,0,0.,4.8,2.,4.8,1.,4.8,0.,4.8
1981-08-24 03:04:34.590 ,3,0,0.,4.8,2.,4.8,0.,4.8,0.,4.8
1981-08-24 03:04:39.390 ,3,0,0.,4.8,1.,4.8,0.,4.8,0.,4.8
1981-08-24 03:04:44.190 ,3,0,0.,4.8,1.,4.8,0.,4.8,0.,4.8
1981-08-24 03:04:48.990 ,2,0,0.,4.8,2.,4.8,0.,4.8,0.,4.8
1981-08-24 03:04:53.790 ,2,0,0.,4.8,1.,4.8,0.,4.8,0.,4.8
1981-08-24 03:04:58.590 ,2,0,0.,4.8,3.,4.8,1.,4.8,0.,4.8
1981-08-24 03:05:03.390 ,2,0,0.,4.8,2.,4.8,0.,4.8,0.,4.8
1981-08-24 03:05:08.190 ,2,0,0.,4.8,0.,4.8,1.,4.8,0.,4.8
1981-08-24 03:05:12.990 ,2,0,0.,4.8,0.,4.8,0.,4.8,0.,4.8
1981-08-24 03:05:17.790 ,2,0,0.,4.8,1.,4.8,0.,4.8,0.,4.8
1981-08-24 03:05:22.590 ,2,0,0.,4.8,2.,4.8,0.,4.8,0.,4.8
1981-08-24 03:05:27.390 ,2,0,0.,4.8,2.,4.8,1.,4.8,0.,4.8
1981-08-24 03:05:32.190 ,2,0,0.,4.8,0.,4.8,1.,4.8,0.,4.8
1981-08-24 03:05:36.990 ,1,0,0.,4.8,0.,4.8,1.,4.8,0.,4.8
1981-08-24 03:05:41.790 ,1,0,0.,4.8,0.,4.8,0.,4.8,0.,4.8
1981-08-24 03:05:46.590 ,1,0,0.,4.8,0.,4.8,0.,4.8,0.,4.8
1981-08-24 03:05:51.390 ,1,0,0.,4.8,2.,4.8,2.,4.8,0.,4.8
1981-08-24 03:05:56.190 ,1,0,0.,4.8,3.,4.8,0.,4.8,0.,4.8
1981-08-24 03:06:00.990 ,1,0,0.,4.8,0.,4.8,0.,4.8,0.,4.8
1981-08-24 03:06:05.790 ,1,0,0.,4.8,0.,4.8,0.,4.8,0.,4.8
1981-08-24 03:06:10.590 ,1,0,0.,4.8,3.,4.8,0.,4.8,0.,4.8
1981-08-24 03:06:15.390 ,1,0,0.,4.8,0.,4.8,0.,4.8,0.,4.8
1981-08-24 03:06:20.190 ,1,0,0.,4.8,4.,4.8,0.,4.8,1.,4.8
1981-08-24 03:06:24.990 ,0,0,0.,4.8,5.,4.8,0.,4.8,0.,4.8
1981-08-24 03:06:29.790 ,0,0,0.,4.8,2.,4.8,0.,4.8,0.,4.8
1981-08-24 03:06:34.590 ,0,0,0.,4.8,1.,4.8,0.,4.8,1.,4.8
1981-08-24 03:06:39.390 ,0,0,0.,4.8,1.,4.8,0.,4.8,0.,4.8
1981-08-24 03:06:44.190 ,0,0,0.,4.8,0.,4.8,1.,4.8,0.,4.8
1981-08-24 03:06:48.990 ,0,0,0.,4.8,4.,4.8,0.,4.8,0.,4.8
1981-08-24 03:06:53.790 ,0,0,0.,4.8,2.,4.8,0.,4.8,0.,4.8
1981-08-24 03:06:58.590 ,0,0,0.,4.8,6.,4.8,1.,4.8,0.,4.8
1981-08-24 03:07:03.390 ,0,0,0.,4.8,2.,4.8,0.,4.8,0.,4.8
1981-08-24 03:07:08.190 ,0,0,0.,4.8,0.,4.8,0.,4.8,2.,4.8
1981-08-24 03:07:12.990 ,0,0,0.,4.8,4.,4.8,0.,4.8,2.,4.8
1981-08-24 03:07:17.790 ,0,0,0.,4.8,1.,4.8,1.,4.8,0.,4.8
1981-08-24 03:07:22.590 ,0,0,0.,4.8,2.,4.8,0.,4.8,0.,4.8
1981-08-24 03:07:27.390 ,0,0,0.,4.8,3.,4.8,0.,4.8,0.,4.8
1981-08-24 03:07:32.190 ,0,0,0.,4.8,0.,4.8,1.,4.8,0.,4.8
1981-08-24 03:07:36.990 ,0,0,0.,4.8,0.,4.8,0.,4.8,0.,4.8
1981-08-24 03:07:41.790 ,0,0,0.,4.8,3.,4.8,0.,4.8,1.,4.8
1981-08-24 03:07:46.590 ,0,0,0.,4.8,3.,4.8,0.,4.8,0.,4.8
1981-08-24 03:07:51.390 ,0,0,0.,4.8,3.,4.8,0.,4.8,0.,4.8
1981-08-24 03:07:56.190 ,0,0,0.,4.8,2.,4.8,1.,4.8,0.,4.8
1981-08-24 03:08:00.990 ,1,0,0.,4.8,2.,4.8,0.,4.8,0.,4.8
1981-08-24 03:08:05.790 ,1,0,0.,4.8,7.,4.8,0.,4.8,0.,4.8
1981-08-24 03:08:10.590 ,1,0,0.,4.8,3.,4.8,0.,4.8,0.,4.8
1981-08-24 03:08:15.390 ,1,0,0.,4.8,1.,4.8,0.,4.8,2.,4.8
1981-08-24 03:08:20.190 ,1,0,0.,4.8,0.,4.8,0.,4.8,0.,4.8
1981-08-24 03:08:24.990 ,1,0,0.,4.8,1.,4.8,1.,4.8,0.,4.8
1981-08-24 03:08:29.790 ,1,0,0.,4.8,0.,4.8,0.,4.8,1.,4.8
1981-08-24 03:08:34.590 ,1,0,0.,4.8,0.,4.8,1.,4.8,0.,4.8
1981-08-24 03:08:39.390 ,1,0,0.,4.8,2.,4.8,1.,4.8,0.,4.8
1981-08-24 03:08:44.190 ,1,0,0.,4.8,4.,4.8,0.,4.8,0.,4.8
1981-08-24 03:08:48.990 ,2,0,0.,4.8,2.,4.8,0.,4.8,0.,4.8
1981-08-24 03:08:53.790 ,2,0,0.,4.8,3.,4.8,0.,4.8,0.,4.8
1981-08-24 03:08:58.590 ,2,0,0.,4.8,0.,4.8,0.,4.8,0.,4.8
1981-08-24 03:09:03.390 ,2,0,0.,4.8,1.,4.8,0.,4.8,0.,4.8
1981-08-24 03:09:08.190 ,2,0,0.,4.8,4.,4.8,0.,4.8,0.,4.8
1981-08-24 03:09:12.990 ,2,0,0.,4.8,2.,4.8,0.,4.8,0.,4.8
1981-08-24 03:09:17.790 ,2,0,0.,4.8,0.,4.8,0.,4.8,0.,4.8
1981-08-24 03:09:22.590 ,2,0,0.,4.8,3.,4.8,1.,4.8,0.,4.8
1981-08-24 03:09:27.390 ,2,0,0.,4.8,5.,4.8,1.,4.8,0.,4.8
1981-08-24 03:09:32.190 ,2,0,0.,4.8,3.,4.8,1.,4.8,0.,4.8
1981-08-24 03:09:36.990 ,3,0,0.,4.8,1.,4.8,0.,4.8,0.,4.8
1981-08-24 03:09:41.790 ,3,0,0.,4.8,1.,4.8,1.,4.8,0.,4.8
1981-08-24 03:09:46.590 ,3,0,0.,4.8,3.,4.8,0.,4.8,0.,4.8
1981-08-24 03:09:51.390 ,3,0,0.,4.8,1.,4.8,0.,4.8,0.,4.8
1981-08-24 03:09:56.190 ,3,0,0.,4.8,1.,4.8,0.,4.8,0.,4.8
1981-08-24 03:10:00.990 ,3,0,0.,4.8,1.,4.8,0.,4.8,0.,4.8
1981-08-24 03:10:05.790 ,3,0,0.,4.8,2.,4.8,0.,4.8,0.,4.8
1981-08-24 03:10:10.590 ,3,0,0.,4.8,2.,4.8,0.,4.8,0.,4.8
1981-08-24 03:10:15.390 ,3,0,0.,4.8,2.,4.8,0.,4.8,0.,4.8
1981-08-24 03:10:20.190 ,3,0,0.,4.8,2.,4.8,0.,4.8,0.,4.8
1981-08-24 03:10:24.990 ,4,0,0.,4.8,3.,4.8,0.,4.8,0.,4.8
1981-08-24 03:10:29.790 ,4,0,0.,4.8,0.,4.8,0.,4.8,0.,4.8
1981-08-24 03:10:34.590 ,4,0,0.,4.8,0.,4.8,0.,4.8,0.,4.8
1981-08-24 03:10:39.390 ,4,0,0.,4.8,0.,4.8,1.,4.8,0.,4.8
1981-08-24 03:10:44.190 ,4,0,0.,4.8,1.,4.8,1.,4.8,0.,4.8
1981-08-24 03:10:48.990 ,4,0,0.,4.8,3.,4.8,0.,4.8,0.,4.8
1981-08-24 03:10:53.790 ,4,0,0.,4.8,1.,4.8,0.,4.8,0.,4.8
1981-08-24 03:10:58.590 ,4,0,0.,4.8,3.,4.8,0.,4.8,0.,4.8
1981-08-24 03:11:03.390 ,4,0,0.,4.8,0.,4.8,1.,4.8,0.,4.8
1981-08-24 03:11:08.190 ,4,0,0.,4.8,4.,4.8,0.,4.8,0.,4.8
1981-08-24 03:11:12.990 ,5,0,0.,4.8,1.,4.8,0.,4.8,0.,4.8
1981-08-24 03:11:17.790 ,5,0,0.,4.8,3.,4.8,0.,4.8,0.,4.8
1981-08-24 03:11:22.590 ,5,0,0.,4.8,0.,4.8,0.,4.8,0.,4.8
1981-08-24 03:11:27.390 ,5,0,0.,4.8,2.,4.8,0.,4.8,0.,4.8
1981-08-24 03:11:32.190 ,5,0,0.,4.8,0.,4.8,0.,4.8,0.,4.8
1981-08-24 03:11:36.990 ,5,0,0.,4.8,0.,4.8,0.,4.8,0.,4.8
1981-08-24 03:11:41.790 ,5,0,0.,4.8,2.,4.8,1.,4.8,0.,4.8
1981-08-24 03:11:46.590 ,5,0,0.,4.8,1.,4.8,0.,4.8,0.,4.8
1981-08-24 03:11:51.390 ,5,0,0.,4.8,1.,4.8,0.,4.8,0.,4.8
1981-08-24 03:11:56.190 ,5,0,0.,4.8,1.,4.8,0.,4.8,0.,4.8
1981-08-24 03:12:00.990 ,6,0,0.,4.8,1.,4.8,0.,4.8,0.,4.8
1981-08-24 03:12:05.790 ,6,0,0.,4.8,0.,4.8,0.,4.8,1.,4.8
1981-08-24 03:12:10.590 ,6,0,0.,4.8,1.,4.8,1.,4.8,0.,4.8
1981-08-24 03:12:15.390 ,6,0,0.,4.8,1.,4.8,0.,4.8,0.,4.8
1981-08-24 03:12:20.190 ,6,0,0.,4.8,1.,4.8,1.,4.8,0.,4.8
1981-08-24 03:12:24.990 ,6,0,0.,4.8,0.,4.8,0.,4.8,0.,4.8
1981-08-24 03:12:29.790 ,6,0,0.,4.8,1.,4.8,0.,4.8,0.,4.8
1981-08-24 03:12:34.590 ,6,0,0.,4.8,1.,4.8,0.,4.8,0.,4.8
1981-08-24 03:12:39.390 ,6,0,0.,4.8,1.,4.8,0.,4.8,0.,4.8
1981-08-24 03:12:44.190 ,6,0,0.,4.8,2.,4.8,1.,4.8,0.,4.8
1981-08-24 03:12:48.990 ,7,0,0.,4.8,1.,4.8,1.,4.8,0.,4.8
1981-08-24 03:12:53.790 ,7,0,0.,4.8,0.,4.8,1.,4.8,0.,4.8
1981-08-24 03:12:58.590 ,7,0,0.,4.8,0.,4.8,0.,4.8,0.,4.8
1981-08-24 03:13:03.390 ,7,0,0.,4.8,0.,4.8,2.,4.8,0.,4.8
1981-08-24 03:13:08.190 ,7,0,0.,4.8,0.,4.8,0.,4.8,0.,4.8
1981-08-24 03:13:12.990 ,7,0,0.,4.8,0.,4.8,0.,4.8,0.,4.8
1981-08-24 03:13:17.790 ,7,0,0.,4.8,0.,4.8,2.,4.8,0.,4.8
1981-08-24 03:13:22.590 ,7,0,0.,4.8,2.,4.8,1.,4.8,0.,4.8
1981-08-24 03:13:27.390 ,7,0,0.,4.8,0.,4.8,0.,4.8,0.,4.8
1981-08-24 03:13:32.190 ,7,0,0.,4.8,1.,4.8,0.,4.8,0.,4.8
1981-08-24 03:13:36.990 ,7,0,0.,4.8,0.,4.8,0.,4.8,0.,4.8
1981-08-24 03:13:41.790 ,7,0,0.,4.8,0.,4.8,0.,4.8,0.,4.8
1981-08-24 03:13:46.590 ,7,0,0.,4.8,0.,4.8,0.,4.8,0.,4.8
1981-08-24 03:13:51.390 ,7,0,0.,4.8,1.,4.8,0.,4.8,0.,4.8
1981-08-24 03:13:56.190 ,7,0,0.,4.8,1.,4.8,0.,4.8,0.,4.8
1981-08-24 03:14:00.990 ,6,0,0.,4.8,1.,4.8,0.,4.8,0.,4.8
1981-08-24 03:14:05.790 ,6,0,0.,4.8,0.,4.8,0.,4.8,0.,4.8
1981-08-24 03:14:10.590 ,6,0,0.,4.8,1.,4.8,1.,4.8,0.,4.8
1981-08-24 03:14:15.390 ,6,0,0.,4.8,2.,4.8,0.,4.8,0.,4.8
1981-08-24 03:14:20.190 ,6,0,0.,4.8,2.,4.8,1.,4.8,0.,4.8
1981-08-24 03:14:24.990 ,5,0,0.,4.8,1.,4.8,0.,4.8,0.,4.8
1981-08-24 03:14:29.790 ,5,0,0.,4.8,0.,4.8,0.,4.8,0.,4.8
1981-08-24 03:14:34.590 ,5,0,0.,4.8,3.,4.8,1.,4.8,0.,4.8
1981-08-24 03:14:39.390 ,5,0,0.,4.8,0.,4.8,2.,4.8,0.,4.8
1981-08-24 03:14:44.190 ,5,0,0.,4.8,0.,4.8,0.,4.8,0.,4.8
1981-08-24 03:14:48.990 ,4,0,0.,4.8,0.,4.8,0.,4.8,0.,4.8
1981-08-24 03:14:53.790 ,4,0,0.,4.8,0.,4.8,0.,4.8,0.,4.8
1981-08-24 03:14:58.590 ,4,0,0.,4.8,3.,4.8,0.,4.8,0.,4.8
1981-08-24 03:15:03.390 ,4,0,0.,4.8,0.,4.8,0.,4.8,0.,4.8
1981-08-24 03:15:08.190 ,4,0,0.,4.8,0.,4.8,0.,4.8,0.,4.8
1981-08-24 03:15:12.990 ,3,0,0.,4.8,2.,4.8,0.,4.8,0.,4.8
1981-08-24 03:15:17.790 ,3,0,0.,4.8,0.,4.8,0.,4.8,0.,4.8
1981-08-24 03:15:22.590 ,3,0,0.,4.8,2.,4.8,0.,4.8,0.,4.8
1981-08-24 03:15:27.390 ,3,0,0.,4.8,1.,4.8,1.,4.8,0.,4.8
1981-08-24 03:15:32.190 ,3,0,0.,4.8,0.,4.8,0.,4.8,0.,4.8
1981-08-24 03:15:36.990 ,2,0,0.,4.8,0.,4.8,0.,4.8,0.,4.8
1981-08-24 03:15:41.790 ,2,0,0.,4.8,2.,4.8,0.,4.8,0.,4.8
1981-08-24 03:15:46.590 ,2,0,0.,4.8,1.,4.8,0.,4.8,1.,4.8
1981-08-24 03:15:51.390 ,2,0,0.,4.8,1.,4.8,0.,4.8,0.,4.8
1981-08-24 03:15:56.190 ,2,0,0.,4.8,3.,4.8,0.,4.8,0.,4.8
1981-08-24 03:16:00.990 ,1,0,0.,4.8,4.,4.8,1.,4.8,0.,4.8
1981-08-24 03:16:05.790 ,1,0,0.,4.8,2.,4.8,1.,4.8,0.,4.8
1981-08-24 03:16:10.590 ,1,0,0.,4.8,4.,4.8,0.,4.8,0.,4.8
1981-08-24 03:16:15.390 ,1,0,0.,4.8,3.,4.8,0.,4.8,0.,4.8
1981-08-24 03:16:20.190 ,1,0,0.,4.8,2.,4.8,1.,4.8,0.,4.8
1981-08-24 03:16:24.990 ,0,0,0.,4.8,3.,4.8,0.,4.8,0.,4.8
1981-08-24 03:16:29.790 ,0,0,0.,4.8,2.,4.8,0.,4.8,0.,4.8
1981-08-24 03:16:34.590 ,0,0,0.,4.8,3.,4.8,1.,4.8,0.,4.8
1981-08-24 03:16:39.390 ,0,0,0.,4.8,2.,4.8,0.,4.8,0.,4.8
1981-08-24 03:16:44.190 ,0,0,0.,4.8,1.,4.8,0.,4.8,0.,4.8
1981-08-24 03:16:48.990 ,0,0,0.,4.8,3.,4.8,0.,4.8,0.,4.8
1981-08-24 03:16:53.790 ,0,0,0.,4.8,4.,4.8,1.,4.8,0.,4.8
1981-08-24 03:16:58.590 ,0,0,0.,4.8,3.,4.8,1.,4.8,0.,4.8
1981-08-24 03:17:03.390 ,0,0,0.,4.8,1.,4.8,0.,4.8,0.,4.8
1981-08-24 03:17:08.190 ,0,0,0.,4.8,4.,4.8,1.,4.8,1.,4.8
1981-08-24 03:17:12.980 ,1,0,0.,4.8,2.,4.8,0.,4.8,0.,4.8
1981-08-24 03:17:17.780 ,1,0,0.,4.8,0.,4.8,1.,4.8,0.,4.8
1981-08-24 03:17:22.580 ,1,0,0.,4.8,1.,4.8,0.,4.8,0.,4.8
1981-08-24 03:17:27.390 ,1,0,0.,4.8,0.,4.8,2.,4.8,0.,4.8
1981-08-24 03:17:32.180 ,1,0,0.,4.8,2.,4.8,0.,4.8,0.,4.8
1981-08-24 03:17:36.980 ,2,0,0.,4.8,3.,4.8,0.,4.8,0.,4.8
1981-08-24 03:17:41.780 ,2,0,0.,4.8,1.,4.8,2.,4.8,0.,4.8
1981-08-24 03:17:46.580 ,2,0,0.,4.8,0.,4.8,0.,4.8,0.,4.8
1981-08-24 03:17:51.390 ,2,0,0.,4.8,2.,4.8,0.,4.8,0.,4.8
1981-08-24 03:17:56.180 ,2,0,0.,4.8,0.,4.8,0.,4.8,0.,4.8
1981-08-24 03:18:00.980 ,3,0,0.,4.8,1.,4.8,0.,4.8,0.,4.8
1981-08-24 03:18:05.780 ,3,0,0.,4.8,3.,4.8,0.,4.8,0.,4.8
1981-08-24 03:18:10.580 ,3,0,0.,4.8,1.,4.8,0.,4.8,1.,4.8
1981-08-24 03:18:15.390 ,3,0,0.,4.8,0.,4.8,0.,4.8,0.,4.8
1981-08-24 03:18:20.180 ,3,0,0.,4.8,2.,4.8,0.,4.8,0.,4.8
1981-08-24 03:18:24.980 ,4,0,0.,4.8,1.,4.8,0.,4.8,0.,4.8
1981-08-24 03:18:29.780 ,4,0,0.,4.8,1.,4.8,1.,4.8,0.,4.8
1981-08-24 03:18:34.580 ,4,0,0.,4.8,0.,4.8,0.,4.8,0.,4.8
1981-08-24 03:18:39.390 ,4,0,0.,4.8,0.,4.8,0.,4.8,0.,4.8
1981-08-24 03:18:44.180 ,4,0,0.,4.8,3.,4.8,1.,4.8,0.,4.8
1981-08-24 03:18:48.980 ,5,0,0.,4.8,2.,4.8,0.,4.8,0.,4.8
1981-08-24 03:18:53.780 ,5,0,0.,4.8,0.,4.8,0.,4.8,0.,4.8
1981-08-24 03:18:58.580 ,5,0,0.,4.8,2.,4.8,0.,4.8,0.,4.8
1981-08-24 03:19:03.390 ,5,0,0.,4.8,3.,4.8,0.,4.8,0.,4.8
1981-08-24 03:19:08.180 ,5,0,0.,4.8,1.,4.8,0.,4.8,0.,4.8
1981-08-24 03:19:12.980 ,6,0,0.,4.8,2.,4.8,0.,4.8,0.,4.8
1981-08-24 03:19:17.780 ,6,0,0.,4.8,1.,4.8,0.,4.8,0.,4.8
1981-08-24 03:19:22.580 ,6,0,0.,4.8,2.,4.8,1.,4.8,0.,4.8
1981-08-24 03:19:27.390 ,6,0,0.,4.8,1.,4.8,1.,4.8,0.,4.8
1981-08-24 03:19:32.180 ,6,0,0.,4.8,2.,4.8,0.,4.8,1.,4.8
1981-08-24 03:19:36.980 ,7,0,0.,4.8,1.,4.8,0.,4.8,0.,4.8
1981-08-24 03:19:41.780 ,7,0,0.,4.8,0.,4.8,0.,4.8,0.,4.8
1981-08-24 03:19:46.580 ,7,0,0.,4.8,1.,4.8,0.,4.8,0.,4.8
1981-08-24 03:19:51.390 ,7,0,0.,4.8,0.,4.8,0.,4.8,0.,4.8
1981-08-24 03:19:56.180 ,7,0,0.,4.8,0.,4.8,0.,4.8,0.,4.8
1981-08-24 03:20:00.980 ,7,0,0.,4.8,0.,4.8,0.,4.8,0.,4.8
1981-08-24 03:20:05.780 ,7,0,0.,4.8,1.,4.8,0.,4.8,0.,4.8
1981-08-24 03:20:10.580 ,7,0,0.,4.8,0.,4.8,1.,4.8,0.,4.8
1981-08-24 03:20:15.390 ,7,0,0.,4.8,0.,4.8,0.,4.8,0.,4.8
1981-08-24 03:20:20.180 ,7,0,0.,4.8,0.,4.8,0.,4.8,0.,4.8
1981-08-24 03:20:24.980 ,7,0,0.,4.8,2.,4.8,0.,4.8,0.,4.8
1981-08-24 03:20:29.780 ,7,0,0.,4.8,0.,4.8,0.,4.8,0.,4.8
1981-08-24 03:20:34.580 ,7,0,0.,4.8,0.,4.8,0.,4.8,0.,4.8
1981-08-24 03:20:39.390 ,7,0,0.,4.8,1.,4.8,0.,4.8,0.,4.8
1981-08-24 03:20:44.180 ,7,0,0.,4.8,0.,4.8,0.,4.8,0.,4.8
1981-08-24 03:20:48.980 ,6,0,0.,4.8,0.,4.8,0.,4.8,0.,4.8
1981-08-24 03:20:53.780 ,6,0,0.,4.8,0.,4.8,1.,4.8,0.,4.8
1981-08-24 03:20:58.580 ,6,0,0.,4.8,2.,4.8,0.,4.8,0.,4.8
1981-08-24 03:21:03.390 ,6,0,0.,4.8,1.,4.8,0.,4.8,0.,4.8
1981-08-24 03:21:08.180 ,6,0,0.,4.8,2.,4.8,0.,4.8,0.,4.8
1981-08-24 03:21:12.980 ,6,0,0.,4.8,1.,4.8,0.,4.8,1.,4.8
1981-08-24 03:21:17.780 ,6,0,0.,4.8,1.,4.8,1.,4.8,0.,4.8
1981-08-24 03:21:22.580 ,6,0,0.,4.8,1.,4.8,0.,4.8,0.,4.8
1981-08-24 03:21:27.390 ,6,0,0.,4.8,3.,4.8,0.,4.8,0.,4.8
1981-08-24 03:21:32.180 ,6,0,0.,4.8,1.,4.8,0.,4.8,0.,4.8
1981-08-24 03:21:36.980 ,5,0,0.,4.8,2.,4.8,1.,4.8,0.,4.8
1981-08-24 03:21:41.780 ,5,0,0.,4.8,2.,4.8,0.,4.8,0.,4.8
1981-08-24 03:21:46.580 ,5,0,0.,4.8,1.,4.8,1.,4.8,0.,4.8
1981-08-24 03:21:51.390 ,5,0,0.,4.8,1.,4.8,0.,4.8,0.,4.8
1981-08-24 03:21:56.180 ,5,0,0.,4.8,0.,4.8,0.,4.8,0.,4.8
1981-08-24 03:22:00.980 ,5,0,0.,4.8,1.,4.8,0.,4.8,0.,4.8
1981-08-24 03:22:05.780 ,5,0,0.,4.8,1.,4.8,0.,4.8,0.,4.8
1981-08-24 03:22:10.580 ,5,0,0.,4.8,2.,4.8,0.,4.8,0.,4.8
1981-08-24 03:22:15.390 ,5,0,0.,4.8,0.,4.8,0.,4.8,0.,4.8
1981-08-24 03:22:20.180 ,5,0,0.,4.8,0.,4.8,0.,4.8,0.,4.8
1981-08-24 03:22:24.980 ,4,0,0.,4.8,3.,4.8,0.,4.8,0.,4.8
1981-08-24 03:22:29.780 ,4,0,0.,4.8,0.,4.8,0.,4.8,0.,4.8
1981-08-24 03:22:34.580 ,4,0,0.,4.8,0.,4.8,0.,4.8,0.,4.8
1981-08-24 03:22:39.390 ,4,0,0.,4.8,1.,4.8,0.,4.8,0.,4.8
1981-08-24 03:22:44.180 ,4,0,0.,4.8,0.,4.8,0.,4.8,0.,4.8
1981-08-24 03:22:48.980 ,4,0,0.,4.8,1.,4.8,0.,4.8,0.,4.8
1981-08-24 03:22:53.780 ,4,0,0.,4.8,0.,4.8,0.,4.8,0.,4.8
1981-08-24 03:22:58.580 ,4,0,0.,4.8,3.,4.8,0.,4.8,0.,4.8
1981-08-24 03:23:03.390 ,4,0,0.,4.8,0.,4.8,0.,4.8,0.,4.8
1981-08-24 03:23:08.180 ,4,0,0.,4.8,1.,4.8,0.,4.8,0.,4.8
1981-08-24 03:23:12.980 ,3,0,0.,4.8,0.,4.8,0.,4.8,0.,4.8
1981-08-24 03:23:17.780 ,3,0,0.,4.8,0.,4.8,1.,4.8,1.,4.8
1981-08-24 03:23:22.580 ,3,0,0.,4.8,1.,4.8,0.,4.8,0.,4.8
1981-08-24 03:23:27.390 ,3,0,0.,4.8,2.,4.8,0.,4.8,0.,4.8
1981-08-24 03:23:32.180 ,3,0,0.,4.8,0.,4.8,0.,4.8,0.,4.8
1981-08-24 03:23:36.980 ,3,0,0.,4.8,0.,4.8,0.,4.8,0.,4.8
1981-08-24 03:23:41.780 ,3,0,0.,4.8,0.,4.8,0.,4.8,0.,4.8
1981-08-24 03:23:46.580 ,3,0,0.,4.8,0.,4.8,0.,4.8,0.,4.8
1981-08-24 03:23:51.390 ,3,0,0.,4.8,0.,4.8,0.,4.8,0.,4.8
1981-08-24 03:23:56.180 ,3,0,0.,4.8,2.,4.8,0.,4.8,0.,4.8
1981-08-24 03:24:00.980 ,2,0,0.,4.8,0.,4.8,0.,4.8,0.,4.8
1981-08-24 03:24:05.780 ,2,0,0.,4.8,1.,4.8,0.,4.8,0.,4.8
1981-08-24 03:24:10.580 ,2,0,0.,4.8,2.,4.8,0.,4.8,0.,4.8
1981-08-24 03:24:15.390 ,2,0,0.,4.8,3.,4.8,0.,4.8,0.,4.8
1981-08-24 03:24:20.180 ,2,0,0.,4.8,0.,4.8,0.,4.8,0.,4.8
1981-08-24 03:24:24.980 ,2,0,0.,4.8,1.,4.8,0.,4.8,0.,4.8
1981-08-24 03:24:29.780 ,2,0,0.,4.8,1.,4.8,0.,4.8,0.,4.8
1981-08-24 03:24:34.580 ,2,0,0.,4.8,3.,4.8,0.,4.8,0.,4.8
1981-08-24 03:24:39.390 ,2,0,0.,4.8,0.,4.8,0.,4.8,1.,4.8
1981-08-24 03:24:44.180 ,2,0,0.,4.8,1.,4.8,0.,4.8,0.,4.8
1981-08-24 03:24:48.980 ,1,0,0.,4.8,0.,4.8,0.,4.8,0.,4.8
1981-08-24 03:24:53.780 ,1,0,0.,4.8,1.,4.8,0.,4.8,0.,4.8
1981-08-24 03:24:58.580 ,1,0,0.,4.8,1.,4.8,1.,4.8,0.,4.8
1981-08-24 03:25:03.390 ,1,0,0.,4.8,1.,4.8,0.,4.8,1.,4.8
1981-08-24 03:25:08.180 ,1,0,0.,4.8,1.,4.8,0.,4.8,0.,4.8
1981-08-24 03:25:12.980 ,1,0,0.,4.8,1.,4.8,0.,4.8,0.,4.8
1981-08-24 03:25:17.780 ,1,0,0.,4.8,2.,4.8,0.,4.8,0.,4.8
1981-08-24 03:25:22.580 ,1,0,0.,4.8,0.,4.8,0.,4.8,0.,4.8
1981-08-24 03:25:27.390 ,1,0,0.,4.8,2.,4.8,1.,4.8,0.,4.8
1981-08-24 03:25:32.180 ,1,0,0.,4.8,0.,4.8,0.,4.8,0.,4.8
1981-08-24 03:25:36.980 ,0,0,0.,4.8,1.,4.8,0.,4.8,0.,4.8
1981-08-24 03:25:41.780 ,0,0,0.,4.8,0.,4.8,0.,4.8,0.,4.8
1981-08-24 03:25:46.580 ,0,0,0.,4.8,1.,4.8,0.,4.8,0.,4.8
1981-08-24 03:25:51.390 ,0,0,0.,4.8,1.,4.8,0.,4.8,0.,4.8
1981-08-24 03:25:56.180 ,0,0,0.,4.8,1.,4.8,0.,4.8,0.,4.8
1981-08-24 03:26:00.980 ,0,0,0.,4.8,1.,4.8,0.,4.8,0.,4.8
1981-08-24 03:26:05.780 ,0,0,0.,4.8,3.,4.8,0.,4.8,0.,4.8
1981-08-24 03:26:10.580 ,0,0,0.,4.8,2.,4.8,1.,4.8,0.,4.8
1981-08-24 03:26:15.390 ,0,0,0.,4.8,2.,4.8,1.,4.8,2.,4.8
1981-08-24 03:26:20.180 ,0,0,0.,4.8,1.,4.8,0.,4.8,0.,4.8
1981-08-24 03:26:24.980 ,0,0,0.,4.8,3.,4.8,1.,4.8,1.,4.8
1981-08-24 03:26:29.780 ,0,0,0.,4.8,0.,4.8,1.,4.8,0.,4.8
1981-08-24 03:26:34.580 ,0,0,0.,4.8,1.,4.8,1.,4.8,0.,4.8
1981-08-24 03:26:39.390 ,0,0,0.,4.8,1.,4.8,0.,4.8,0.,4.8
1981-08-24 03:26:44.180 ,0,0,0.,4.8,1.,4.8,0.,4.8,0.,4.8
1981-08-24 03:26:48.980 ,0,0,0.,4.8,0.,4.8,0.,4.8,0.,4.8
1981-08-24 03:26:53.780 ,0,0,0.,4.8,1.,4.8,0.,4.8,0.,4.8
1981-08-24 03:26:58.580 ,0,0,0.,4.8,2.,4.8,0.,4.8,0.,4.8
1981-08-24 03:27:03.390 ,0,0,0.,4.8,2.,4.8,0.,4.8,0.,4.8
1981-08-24 03:27:08.180 ,0,0,0.,4.8,2.,4.8,0.,4.8,1.,4.8
1981-08-24 03:27:12.980 ,1,0,0.,4.8,3.,4.8,1.,4.8,0.,4.8
1981-08-24 03:27:17.780 ,1,0,0.,4.8,1.,4.8,0.,4.8,0.,4.8
1981-08-24 03:27:22.580 ,1,0,0.,4.8,2.,4.8,0.,4.8,0.,4.8
1981-08-24 03:27:27.390 ,1,0,0.,4.8,0.,4.8,1.,4.8,0.,4.8
1981-08-24 03:27:32.180 ,1,0,0.,4.8,1.,4.8,1.,4.8,0.,4.8
1981-08-24 03:27:36.980 ,1,0,0.,4.8,0.,4.8,0.,4.8,0.,4.8
1981-08-24 03:27:41.780 ,1,0,0.,4.8,3.,4.8,0.,4.8,1.,4.8
1981-08-24 03:27:46.580 ,1,0,0.,4.8,2.,4.8,0.,4.8,0.,4.8
1981-08-24 03:27:51.390 ,1,0,0.,4.8,3.,4.8,0.,4.8,0.,4.8
1981-08-24 03:27:56.180 ,1,0,0.,4.8,2.,4.8,0.,4.8,0.,4.8
1981-08-24 03:28:00.980 ,2,0,0.,4.8,1.,4.8,0.,4.8,0.,4.8
1981-08-24 03:28:05.780 ,2,0,0.,4.8,1.,4.8,0.,4.8,0.,4.8
1981-08-24 03:28:10.580 ,2,0,0.,4.8,2.,4.8,0.,4.8,1.,4.8
1981-08-24 03:28:15.390 ,2,0,0.,4.8,1.,4.8,0.,4.8,0.,4.8
1981-08-24 03:28:20.180 ,2,0,0.,4.8,2.,4.8,0.,4.8,0.,4.8
1981-08-24 03:28:24.980 ,2,0,0.,4.8,2.,4.8,0.,4.8,0.,4.8
1981-08-24 03:28:29.780 ,2,0,0.,4.8,1.,4.8,0.,4.8,0.,4.8
1981-08-24 03:28:34.580 ,2,0,0.,4.8,2.,4.8,1.,4.8,0.,4.8
1981-08-24 03:28:39.390 ,2,0,0.,4.8,2.,4.8,0.,4.8,0.,4.8
1981-08-24 03:28:44.180 ,2,0,0.,4.8,2.,4.8,1.,4.8,0.,4.8
1981-08-24 03:28:48.980 ,3,0,0.,4.8,2.,4.8,0.,4.8,0.,4.8
1981-08-24 03:28:53.780 ,3,0,0.,4.8,0.,4.8,0.,4.8,0.,4.8
1981-08-24 03:28:58.580 ,3,0,0.,4.8,0.,4.8,1.,4.8,0.,4.8
1981-08-24 03:29:03.390 ,3,0,0.,4.8,2.,4.8,0.,4.8,0.,4.8
1981-08-24 03:29:08.180 ,3,0,0.,4.8,1.,4.8,0.,4.8,0.,4.8
1981-08-24 03:29:12.980 ,3,0,0.,4.8,6.,4.8,0.,4.8,1.,4.8
1981-08-24 03:29:17.780 ,3,0,0.,4.8,0.,4.8,0.,4.8,0.,4.8
1981-08-24 03:29:22.580 ,3,0,0.,4.8,2.,4.8,0.,4.8,0.,4.8
1981-08-24 03:29:27.390 ,3,0,0.,4.8,1.,4.8,0.,4.8,0.,4.8
1981-08-24 03:29:32.180 ,3,0,0.,4.8,1.,4.8,0.,4.8,0.,4.8
1981-08-24 03:29:36.980 ,4,0,0.,4.8,1.,4.8,0.,4.8,0.,4.8
1981-08-24 03:29:41.780 ,4,0,0.,4.8,0.,4.8,0.,4.8,0.,4.8
1981-08-24 03:29:46.580 ,4,0,0.,4.8,2.,4.8,0.,4.8,0.,4.8
1981-08-24 03:29:51.390 ,4,0,0.,4.8,1.,4.8,0.,4.8,0.,4.8
1981-08-24 03:29:56.180 ,4,0,0.,4.8,0.,4.8,0.,4.8,0.,4.8
1981-08-24 03:30:00.980 ,4,0,0.,4.8,0.,4.8,0.,4.8,0.,4.8
1981-08-24 03:30:05.780 ,4,0,0.,4.8,1.,4.8,0.,4.8,0.,4.8
1981-08-24 03:30:10.580 ,4,0,0.,4.8,1.,4.8,0.,4.8,0.,4.8
1981-08-24 03:30:15.390 ,4,0,0.,4.8,0.,4.8,0.,4.8,0.,4.8
1981-08-24 03:30:20.180 ,4,0,0.,4.8,2.,4.8,0.,4.8,0.,4.8
1981-08-24 03:30:24.980 ,5,0,0.,4.8,1.,4.8,1.,4.8,0.,4.8
1981-08-24 03:30:29.780 ,5,0,0.,4.8,0.,4.8,1.,4.8,0.,4.8
1981-08-24 03:30:34.580 ,5,0,0.,4.8,3.,4.8,0.,4.8,0.,4.8
1981-08-24 03:30:39.390 ,5,0,0.,4.8,0.,4.8,0.,4.8,1.,4.8
1981-08-24 03:30:44.180 ,5,0,0.,4.8,2.,4.8,0.,4.8,0.,4.8
1981-08-24 03:30:48.980 ,5,0,0.,4.8,1.,4.8,0.,4.8,0.,4.8
1981-08-24 03:30:53.780 ,5,0,0.,4.8,0.,4.8,0.,4.8,0.,4.8
1981-08-24 03:30:58.580 ,5,0,0.,4.8,2.,4.8,0.,4.8,0.,4.8
1981-08-24 03:31:03.390 ,5,0,0.,4.8,1.,4.8,1.,4.8,0.,4.8
1981-08-24 03:31:08.180 ,5,0,0.,4.8,1.,4.8,0.,4.8,0.,4.8
1981-08-24 03:31:12.980 ,6,0,0.,4.8,1.,4.8,2.,4.8,0.,4.8
1981-08-24 03:31:17.780 ,6,0,0.,4.8,1.,4.8,0.,4.8,0.,4.8
1981-08-24 03:31:22.580 ,6,0,0.,4.8,3.,4.8,0.,4.8,1.,4.8
1981-08-24 03:31:27.390 ,6,0,0.,4.8,1.,4.8,0.,4.8,0.,4.8
1981-08-24 03:31:32.180 ,6,0,0.,4.8,2.,4.8,0.,4.8,0.,4.8
1981-08-24 03:31:36.980 ,6,0,0.,4.8,2.,4.8,1.,4.8,0.,4.8
1981-08-24 03:31:41.780 ,6,0,0.,4.8,0.,4.8,0.,4.8,0.,4.8
1981-08-24 03:31:46.580 ,6,0,0.,4.8,1.,4.8,0.,4.8,0.,4.8
1981-08-24 03:31:51.390 ,6,0,0.,4.8,1.,4.8,1.,4.8,0.,4.8
1981-08-24 03:31:56.180 ,6,0,0.,4.8,3.,4.8,2.,4.8,0.,4.8
1981-08-24 03:32:00.980 ,7,0,0.,4.8,0.,4.8,0.,4.8,0.,4.8
1981-08-24 03:32:05.780 ,7,0,0.,4.8,2.,4.8,0.,4.8,0.,4.8
1981-08-24 03:32:10.580 ,7,0,0.,4.8,1.,4.8,0.,4.8,0.,4.8
1981-08-24 03:32:15.390 ,7,0,0.,4.8,1.,4.8,0.,4.8,0.,4.8
1981-08-24 03:32:20.180 ,7,0,0.,4.8,0.,4.8,0.,4.8,0.,4.8
1981-08-24 03:32:24.980 ,7,0,0.,4.8,0.,4.8,0.,4.8,0.,4.8
1981-08-24 03:32:29.780 ,7,0,0.,4.8,0.,4.8,0.,4.8,0.,4.8
1981-08-24 03:32:34.580 ,7,0,0.,4.8,0.,4.8,0.,4.8,0.,4.8
1981-08-24 03:32:39.390 ,7,0,0.,4.8,0.,4.8,0.,4.8,0.,4.8
1981-08-24 03:32:44.180 ,7,0,0.,4.8,0.,4.8,0.,4.8,0.,4.8
1981-08-24 03:32:48.980 ,7,0,0.,4.8,1.,4.8,0.,4.8,0.,4.8
1981-08-24 03:32:53.780 ,7,0,0.,4.8,0.,4.8,0.,4.8,0.,4.8
1981-08-24 03:32:58.580 ,7,0,0.,4.8,0.,4.8,0.,4.8,1.,4.8
1981-08-24 03:33:03.390 ,7,0,0.,4.8,1.,4.8,0.,4.8,0.,4.8
1981-08-24 03:33:08.180 ,7,0,0.,4.8,1.,4.8,0.,4.8,0.,4.8
1981-08-24 03:33:12.980 ,6,0,0.,4.8,0.,4.8,1.,4.8,0.,4.8
1981-08-24 03:33:17.780 ,6,0,0.,4.8,0.,4.8,0.,4.8,0.,4.8